Time,TemperatureF,DewpointF,PressureIn,WindDirection,WindDirectionDegrees,WindSpeedMPH,WindSpeedGustMPH,Humidity,HourlyPrecipIn,Conditions,Clouds,dailyrainin,SoftwareType,DateUTC
2013-03-03 00:00:00,24.5,20.4,29.99,North,355,1.0,1.0,84,0.00,,,0.01,Wunderground v.1.15,2013-03-03 05:00:00,
2013-03-03 00:05:00,24.4,20.3,29.99,WSW,250,0.0,1.0,84,0.00,,,0.00,Wunderground v.1.15,2013-03-03 05:05:00,
2013-03-03 00:15:00,24.4,20.5,29.99,WSW,238,0.0,0.0,85,0.00,,,0.00,Wunderground v.1.15,2013-03-03 05:15:00,
2013-03-03 00:25:00,24.4,20.5,29.99,WSW,238,0.0,0.0,85,0.00,,,0.00,Wunderground v.1.15,2013-03-03 05:25:00,
2013-03-03 00:30:00,24.4,20.5,29.99,WSW,254,0.0,0.0,85,0.00,,,0.00,Wunderground v.1.15,2013-03-03 05:30:00,
2013-03-03 00:40:00,24.2,20.3,29.99,West,260,1.0,1.0,85,0.00,,,0.00,Wunderground v.1.15,2013-03-03 05:40:00,
2013-03-03 00:45:00,24.1,20.2,29.99,West,260,0.0,1.0,85,0.00,,,0.00,Wunderground v.1.15,2013-03-03 05:45:00,
2013-03-03 00:55:00,24.1,20.5,29.99,West,260,0.0,1.0,86,0.00,,,0.00,Wunderground v.1.15,2013-03-03 05:55:00,
2013-03-03 01:00:00,23.9,20.3,29.99,WSW,250,0.0,1.0,86,0.00,,,0.00,Wunderground v.1.15,2013-03-03 06:00:00,
2013-03-03 01:10:00,23.8,20.2,29.99,WSW,250,0.0,1.0,86,0.00,,,0.00,Wunderground v.1.15,2013-03-03 06:10:00,
2013-03-03 01:15:00,23.6,19.8,29.99,WSW,239,1.0,1.0,85,0.00,,,0.00,Wunderground v.1.15,2013-03-03 06:15:00,
2013-03-03 01:25:00,23.6,19.8,30.00,SW,236,0.0,1.0,85,0.00,,,0.00,Wunderground v.1.15,2013-03-03 06:25:00,
2013-03-03 01:30:00,23.6,19.5,30.00,SW,236,0.0,0.0,84,0.00,,,0.00,Wunderground v.1.15,2013-03-03 06:30:00,
2013-03-03 01:40:00,23.6,19.8,29.99,SW,236,0.0,0.0,85,0.00,,,0.00,Wunderground v.1.15,2013-03-03 06:40:00,
2013-03-03 01:45:00,23.6,19.8,29.99,SW,236,0.0,0.0,85,0.00,,,0.00,Wunderground v.1.15,2013-03-03 06:45:00,
2013-03-03 01:55:00,23.6,19.8,30.00,SW,236,0.0,0.0,85,0.00,,,0.00,Wunderground v.1.15,2013-03-03 06:55:00,
2013-03-03 02:00:00,23.6,19.8,30.00,SW,236,0.0,0.0,85,0.00,,,0.00,Wunderground v.1.15,2013-03-03 07:00:00,
2013-03-03 02:10:00,23.6,20.0,30.00,SW,236,0.0,0.0,86,0.00,,,0.00,Wunderground v.1.15,2013-03-03 07:10:00,
2013-03-03 02:15:00,23.6,20.0,30.00,SW,236,0.0,0.0,86,0.00,,,0.00,Wunderground v.1.15,2013-03-03 07:15:00,
2013-03-03 02:25:00,23.6,20.0,29.99,West,271,0.0,1.0,86,0.00,,,0.00,Wunderground v.1.15,2013-03-03 07:25:00,
2013-03-03 02:30:00,23.5,19.9,29.99,West,259,0.0,0.0,86,0.00,,,0.00,Wunderground v.1.15,2013-03-03 07:30:00,
2013-03-03 02:40:00,23.5,20.2,29.99,West,264,0.0,0.0,87,0.00,,,0.00,Wunderground v.1.15,2013-03-03 07:40:00,
2013-03-03 02:45:00,23.5,20.2,29.99,West,264,0.0,0.0,87,0.00,,,0.00,Wunderground v.1.15,2013-03-03 07:45:00,
2013-03-03 02:55:00,23.3,20.0,29.98,WSW,248,0.0,0.0,87,0.00,,,0.00,Wunderground v.1.15,2013-03-03 07:55:00,
2013-03-03 03:00:00,23.2,19.9,29.98,WSW,248,0.0,0.0,87,0.00,,,0.00,Wunderground v.1.15,2013-03-03 08:00:00,
2013-03-03 03:10:00,23.2,19.9,29.98,WSW,248,0.0,1.0,87,0.00,,,0.00,Wunderground v.1.15,2013-03-03 08:10:00,
2013-03-03 03:15:00,23.2,19.9,29.98,WSW,248,0.0,1.0,87,0.00,,,0.00,Wunderground v.1.15,2013-03-03 08:15:00,
2013-03-03 03:25:00,23.2,20.2,29.98,WSW,248,0.0,1.0,88,0.00,,,0.00,Wunderground v.1.15,2013-03-03 08:25:00,
2013-03-03 03:30:00,23.0,20.0,29.98,WSW,248,0.0,0.0,88,0.00,,,0.00,Wunderground v.1.15,2013-03-03 08:30:00,
2013-03-03 03:40:00,23.0,20.0,29.98,WSW,248,0.0,0.0,88,0.00,,,0.00,Wunderground v.1.15,2013-03-03 08:40:00,
2013-03-03 03:45:00,23.0,19.7,29.98,WSW,248,0.0,0.0,87,0.00,,,0.00,Wunderground v.1.15,2013-03-03 08:45:00,
2013-03-03 03:55:00,23.0,19.7,29.98,WSW,248,0.0,0.0,87,0.00,,,0.00,Wunderground v.1.15,2013-03-03 08:55:00,
2013-03-03 04:00:00,23.0,19.7,29.98,WSW,248,0.0,0.0,87,0.00,,,0.00,Wunderground v.1.15,2013-03-03 09:00:00,
2013-03-03 04:10:00,23.0,19.7,29.97,WSW,248,0.0,0.0,87,0.00,,,0.00,Wunderground v.1.15,2013-03-03 09:10:00,
2013-03-03 04:15:00,23.0,19.7,29.97,WSW,248,0.0,0.0,87,0.00,,,0.00,Wunderground v.1.15,2013-03-03 09:15:00,
2013-03-03 04:25:00,23.0,19.7,29.97,SSW,213,0.0,0.0,87,0.00,,,0.00,Wunderground v.1.15,2013-03-03 09:25:00,
2013-03-03 04:30:00,23.0,19.7,29.97,SSW,213,0.0,1.0,87,0.00,,,0.00,Wunderground v.1.15,2013-03-03 09:30:00,
2013-03-03 04:40:00,22.9,19.6,29.97,ENE,75,0.0,0.0,87,0.00,,,0.00,Wunderground v.1.15,2013-03-03 09:40:00,
2013-03-03 04:45:00,22.9,19.6,29.97,WNW,285,0.0,0.0,87,0.00,,,0.00,Wunderground v.1.15,2013-03-03 09:45:00,
2013-03-03 04:55:00,22.7,19.1,29.98,WSW,252,1.0,1.0,86,0.00,,,0.00,Wunderground v.1.15,2013-03-03 09:55:00,
2013-03-03 05:00:00,22.5,18.9,29.98,NNW,348,0.0,0.0,86,0.00,,,0.00,Wunderground v.1.15,2013-03-03 10:00:00,
2013-03-03 05:05:00,22.4,18.8,29.98,NNW,348,0.0,0.0,86,0.00,,,0.00,Wunderground v.1.15,2013-03-03 10:05:00,
2013-03-03 05:15:00,22.2,18.4,29.98,East,88,0.0,1.0,85,0.00,,,0.00,Wunderground v.1.15,2013-03-03 10:15:00,
2013-03-03 05:25:00,22.2,18.1,29.98,East,88,0.0,0.0,84,0.00,,,0.00,Wunderground v.1.15,2013-03-03 10:25:00,
2013-03-03 05:30:00,22.1,18.0,29.98,WSW,240,0.0,0.0,84,0.00,,,0.00,Wunderground v.1.15,2013-03-03 10:30:00,
2013-03-03 05:40:00,22.1,18.0,29.98,WSW,240,0.0,0.0,84,0.00,,,0.00,Wunderground v.1.15,2013-03-03 10:40:00,
2013-03-03 05:45:00,21.9,17.8,29.98,WSW,240,0.0,0.0,84,0.00,,,0.00,Wunderground v.1.15,2013-03-03 10:45:00,
2013-03-03 05:55:00,21.9,17.8,29.98,WSW,240,0.0,0.0,84,0.00,,,0.00,Wunderground v.1.15,2013-03-03 10:55:00,
2013-03-03 06:00:00,21.9,17.8,29.98,WSW,240,0.0,0.0,84,0.00,,,0.00,Wunderground v.1.15,2013-03-03 11:00:00,
2013-03-03 06:10:00,21.9,17.8,29.98,WSW,240,0.0,0.0,84,0.00,,,0.00,Wunderground v.1.15,2013-03-03 11:10:00,
2013-03-03 06:15:00,21.9,17.8,29.98,WSW,240,0.0,1.0,84,0.00,,,0.00,Wunderground v.1.15,2013-03-03 11:15:00,
2013-03-03 06:25:00,21.8,17.7,29.98,SSW,213,0.0,0.0,84,0.00,,,0.00,Wunderground v.1.15,2013-03-03 11:25:00,
2013-03-03 06:30:00,21.8,17.7,29.98,SSW,213,0.0,0.0,84,0.00,,,0.00,Wunderground v.1.15,2013-03-03 11:30:00,
2013-03-03 06:40:00,21.8,18.0,29.98,SSW,213,0.0,0.0,85,0.00,,,0.00,Wunderground v.1.15,2013-03-03 11:40:00,
2013-03-03 06:45:00,21.8,18.0,29.98,SSW,213,0.0,0.0,85,0.00,,,0.00,Wunderground v.1.15,2013-03-03 11:45:00,
2013-03-03 06:55:00,21.8,17.7,29.98,West,279,0.0,0.0,84,0.00,,,0.00,Wunderground v.1.15,2013-03-03 11:55:00,
2013-03-03 07:00:00,21.8,17.7,29.98,SW,221,0.0,0.0,84,0.00,,,0.00,Wunderground v.1.15,2013-03-03 12:00:00,
2013-03-03 07:05:00,21.8,17.7,29.99,SW,221,0.0,0.0,84,0.00,,,0.00,Wunderground v.1.15,2013-03-03 12:05:00,
2013-03-03 07:15:00,21.6,17.5,29.99,East,80,0.0,0.0,84,0.00,,,0.00,Wunderground v.1.15,2013-03-03 12:15:00,
2013-03-03 07:25:00,21.8,17.7,29.99,ENE,59,0.0,0.0,84,0.00,,,0.00,Wunderground v.1.15,2013-03-03 12:25:00,
2013-03-03 07:30:00,21.8,17.7,29.99,NE,56,0.0,0.0,84,0.00,,,0.00,Wunderground v.1.15,2013-03-03 12:30:00,
2013-03-03 07:40:00,21.8,17.7,29.99,ENE,57,0.0,0.0,84,0.00,,,0.00,Wunderground v.1.15,2013-03-03 12:40:00,
2013-03-03 07:45:00,21.8,17.4,29.99,East,86,0.0,0.0,83,0.00,,,0.00,Wunderground v.1.15,2013-03-03 12:45:00,
2013-03-03 07:55:00,21.9,17.5,29.99,East,86,0.0,0.0,83,0.00,,,0.00,Wunderground v.1.15,2013-03-03 12:55:00,
2013-03-03 08:00:00,21.9,17.2,29.99,NE,34,0.0,0.0,82,0.00,,,0.00,Wunderground v.1.15,2013-03-03 13:00:00,
2013-03-03 08:10:00,22.1,17.2,30.00,ENE,63,0.0,1.0,81,0.00,,,0.00,Wunderground v.1.15,2013-03-03 13:10:00,
2013-03-03 08:15:00,22.1,16.9,30.00,ENE,63,0.0,1.0,80,0.00,,,0.00,Wunderground v.1.15,2013-03-03 13:15:00,
2013-03-03 08:25:00,22.2,17.0,30.00,ENE,65,0.0,1.0,80,0.00,,,0.00,Wunderground v.1.15,2013-03-03 13:25:00,
2013-03-03 08:30:00,22.2,17.0,30.00,ENE,65,0.0,0.0,80,0.00,,,0.00,Wunderground v.1.15,2013-03-03 13:30:00,
2013-03-03 08:40:00,22.2,16.7,30.00,NE,36,1.0,1.0,79,0.00,,,0.00,Wunderground v.1.15,2013-03-03 13:40:00,
2013-03-03 08:45:00,22.2,16.7,30.00,NE,38,0.0,1.0,79,0.00,,,0.00,Wunderground v.1.15,2013-03-03 13:45:00,
2013-03-03 08:55:00,22.2,16.7,30.00,NNE,29,0.0,0.0,79,0.00,,,0.00,Wunderground v.1.15,2013-03-03 13:55:00,
2013-03-03 09:00:00,22.4,16.9,30.00,NE,46,0.0,0.0,79,0.00,,,0.00,Wunderground v.1.15,2013-03-03 14:00:00,
2013-03-03 09:10:00,22.7,17.2,30.00,NE,45,0.0,1.0,79,0.00,,,0.00,Wunderground v.1.15,2013-03-03 14:10:00,
2013-03-03 09:15:00,22.9,17.4,30.00,NE,39,0.0,1.0,79,0.00,,,0.00,Wunderground v.1.15,2013-03-03 14:15:00,
2013-03-03 09:25:00,22.7,17.2,30.00,South,182,0.0,0.0,79,0.00,,,0.00,Wunderground v.1.15,2013-03-03 14:25:00,
2013-03-03 09:30:00,22.7,17.2,30.00,WSW,246,1.0,2.0,79,0.00,,,0.00,Wunderground v.1.15,2013-03-03 14:30:00,
2013-03-03 09:40:00,22.7,17.5,30.00,WSW,241,0.0,0.0,80,0.00,,,0.00,Wunderground v.1.15,2013-03-03 14:40:00,
2013-03-03 09:45:00,22.7,17.5,30.00,North,351,0.0,0.0,80,0.00,,,0.00,Wunderground v.1.15,2013-03-03 14:45:00,
2013-03-03 09:55:00,22.9,17.9,30.00,North,350,0.0,1.0,81,0.00,,,0.00,Wunderground v.1.15,2013-03-03 14:55:00,
2013-03-03 10:00:00,23.0,17.7,30.00,NNE,14,0.0,1.0,80,0.00,,,0.00,Wunderground v.1.15,2013-03-03 15:00:00,
2013-03-03 10:10:00,23.2,17.9,30.01,West,265,0.0,2.0,80,0.00,,,0.00,Wunderground v.1.15,2013-03-03 15:10:00,
2013-03-03 10:15:00,23.5,17.9,30.01,West,271,0.0,2.0,79,0.00,,,0.00,Wunderground v.1.15,2013-03-03 15:15:00,
2013-03-03 10:25:00,23.6,16.2,30.01,East,82,1.0,2.0,73,0.00,,,0.00,Wunderground v.1.15,2013-03-03 15:25:00,
2013-03-03 10:30:00,23.9,16.2,30.01,West,263,0.0,2.0,72,0.00,,,0.00,Wunderground v.1.15,2013-03-03 15:30:00,
2013-03-03 10:40:00,23.9,16.2,30.01,NNW,340,1.0,1.0,72,0.00,,,0.00,Wunderground v.1.15,2013-03-03 15:40:00,
2013-03-03 10:45:00,23.6,16.2,30.01,North,5,1.0,1.0,73,0.00,,,0.00,Wunderground v.1.15,2013-03-03 15:45:00,
2013-03-03 10:55:00,23.9,17.1,30.01,NNE,23,0.0,1.0,75,0.00,,,0.00,Wunderground v.1.15,2013-03-03 15:55:00,
2013-03-03 11:00:00,24.2,17.1,30.01,West,272,1.0,2.0,74,0.00,,,0.00,Wunderground v.1.15,2013-03-03 16:00:00,
2013-03-03 11:05:00,24.2,17.1,30.01,NE,38,1.0,2.0,74,0.00,,,0.00,Wunderground v.1.15,2013-03-03 16:05:00,
2013-03-03 11:15:00,24.5,16.8,30.01,SW,221,1.0,3.0,72,0.00,,,0.00,Wunderground v.1.15,2013-03-03 16:15:00,
2013-03-03 11:25:00,24.4,16.0,30.01,West,270,1.0,1.0,70,0.00,,,0.00,Wunderground v.1.15,2013-03-03 16:25:00,
2013-03-03 11:30:00,24.5,16.4,30.01,ENE,57,0.0,2.0,71,0.00,,,0.00,Wunderground v.1.15,2013-03-03 16:30:00,
2013-03-03 11:40:00,24.7,13.9,30.01,WSW,242,1.0,3.0,63,0.00,,,0.00,Wunderground v.1.15,2013-03-03 16:40:00,
2013-03-03 11:45:00,24.7,13.5,30.01,WSW,258,2.0,3.0,62,0.00,,,0.00,Wunderground v.1.15,2013-03-03 16:45:00,
2013-03-03 11:55:00,25.0,13.8,30.01,West,267,1.0,1.0,62,0.00,,,0.00,Wunderground v.1.15,2013-03-03 16:55:00,
2013-03-03 12:00:00,25.1,13.9,30.01,NNE,33,1.0,1.0,62,0.00,,,0.00,Wunderground v.1.15,2013-03-03 17:00:00,
2013-03-03 12:05:00,25.4,14.9,30.00,SW,229,0.0,2.0,64,0.00,,,0.00,Wunderground v.1.15,2013-03-03 17:05:00,
2013-03-03 12:15:00,25.8,14.2,30.00,West,274,1.0,2.0,61,0.00,,,0.00,Wunderground v.1.15,2013-03-03 17:15:00,
2013-03-03 12:25:00,25.7,14.8,30.00,West,271,1.0,1.0,63,0.00,,,0.00,Wunderground v.1.15,2013-03-03 17:25:00,
2013-03-03 12:30:00,25.7,15.2,30.00,WSW,258,1.0,1.0,64,0.00,,,0.00,Wunderground v.1.15,2013-03-03 17:30:00,
2013-03-03 12:40:00,25.7,15.6,30.00,East,79,1.0,1.0,65,0.00,,,0.00,Wunderground v.1.15,2013-03-03 17:40:00,
2013-03-03 12:45:00,25.8,15.3,30.00,NNE,29,1.0,1.0,64,0.00,,,0.00,Wunderground v.1.15,2013-03-03 17:45:00,
2013-03-03 12:55:00,25.8,16.0,29.99,ENE,74,1.0,2.0,66,0.00,,,0.00,Wunderground v.1.15,2013-03-03 17:55:00,
2013-03-03 13:00:00,25.7,15.9,29.99,NNW,340,1.0,1.0,66,0.00,,,0.00,Wunderground v.1.15,2013-03-03 18:00:00,
2013-03-03 13:10:00,25.6,16.5,29.98,WSW,246,1.0,1.0,68,0.00,,,0.00,Wunderground v.1.15,2013-03-03 18:10:00,
2013-03-03 13:15:00,25.6,16.8,29.98,North,355,1.0,3.0,69,0.00,,,0.00,Wunderground v.1.15,2013-03-03 18:15:00,
2013-03-03 13:25:00,25.7,16.9,29.98,NNE,29,1.0,1.0,69,0.00,,,0.00,Wunderground v.1.15,2013-03-03 18:25:00,
2013-03-03 13:30:00,25.7,16.6,29.98,SSE,154,1.0,1.0,68,0.00,,,0.00,Wunderground v.1.15,2013-03-03 18:30:00,
2013-03-03 13:40:00,25.7,17.6,29.98,WNW,288,1.0,1.0,71,0.00,,,0.00,Wunderground v.1.15,2013-03-03 18:40:00,
2013-03-03 13:45:00,26.0,17.9,29.98,West,279,1.0,1.0,71,0.00,,,0.00,Wunderground v.1.15,2013-03-03 18:45:00,
2013-03-03 13:55:00,25.8,17.4,29.98,NNE,25,1.0,1.0,70,0.00,,,0.00,Wunderground v.1.15,2013-03-03 18:55:00,
2013-03-03 14:00:00,25.8,17.4,29.98,WNW,284,0.0,0.0,70,0.00,,,0.00,Wunderground v.1.15,2013-03-03 19:00:00,
2013-03-03 14:10:00,26.0,17.2,29.98,ESE,107,1.0,1.0,69,0.00,,,0.00,Wunderground v.1.15,2013-03-03 19:10:00,
2013-03-03 14:15:00,26.0,17.2,29.98,West,273,1.0,1.0,69,0.00,,,0.00,Wunderground v.1.15,2013-03-03 19:15:00,
2013-03-03 14:25:00,26.0,16.5,29.98,NE,44,1.0,1.0,67,0.00,,,0.00,Wunderground v.1.15,2013-03-03 19:25:00,
2013-03-03 14:30:00,26.0,16.2,29.98,NNW,344,2.0,2.0,66,0.00,,,0.00,Wunderground v.1.15,2013-03-03 19:30:00,
2013-03-03 14:40:00,26.3,16.1,29.97,WSW,243,1.0,1.0,65,0.00,,,0.01,Wunderground v.1.15,2013-03-03 19:40:00,
2013-03-03 14:45:00,26.4,16.2,29.97,NE,37,1.0,4.0,65,0.00,,,0.01,Wunderground v.1.15,2013-03-03 19:45:00,
2013-03-03 14:55:00,26.3,16.5,29.97,South,180,1.0,5.0,66,0.00,,,0.01,Wunderground v.1.15,2013-03-03 19:55:00,
2013-03-03 15:00:00,26.4,16.6,29.97,WNW,299,1.0,1.0,66,0.00,,,0.01,Wunderground v.1.15,2013-03-03 20:00:00,
2013-03-03 15:05:00,26.9,16.7,29.97,WSW,258,1.0,1.0,65,0.00,,,0.01,Wunderground v.1.15,2013-03-03 20:05:00,
2013-03-03 15:16:00,26.9,16.3,29.97,West,259,1.0,1.0,64,0.00,,,0.01,Wunderground v.1.15,2013-03-03 20:16:00,
2013-03-03 15:25:00,27.0,16.4,29.97,NNE,19,1.0,2.0,64,0.00,,,0.01,Wunderground v.1.15,2013-03-03 20:25:00,
2013-03-03 15:30:00,26.9,16.3,29.97,SW,218,1.0,1.0,64,0.00,,,0.01,Wunderground v.1.15,2013-03-03 20:30:00,
2013-03-03 15:40:00,26.7,16.5,29.98,SSW,211,1.0,1.0,65,0.00,,,0.01,Wunderground v.1.15,2013-03-03 20:40:00,
2013-03-03 15:45:00,26.4,15.9,29.98,ENE,72,1.0,1.0,64,0.00,,,0.01,Wunderground v.1.15,2013-03-03 20:45:00,
2013-03-03 15:55:00,26.1,15.6,29.98,NE,35,1.0,1.0,64,0.00,,,0.01,Wunderground v.1.15,2013-03-03 20:55:00,
2013-03-03 16:00:00,26.1,15.9,29.98,NW,326,2.0,2.0,65,0.00,,,0.01,Wunderground v.1.15,2013-03-03 21:00:00,
2013-03-03 16:10:00,26.3,16.1,29.98,WSW,244,1.0,2.0,65,0.00,,,0.01,Wunderground v.1.15,2013-03-03 21:10:00,
2013-03-03 16:15:00,26.3,16.5,29.98,SSW,199,1.0,2.0,66,0.00,,,0.01,Wunderground v.1.15,2013-03-03 21:15:00,
2013-03-03 16:25:00,26.4,16.9,29.98,SSE,156,1.0,1.0,67,0.00,,,0.01,Wunderground v.1.15,2013-03-03 21:25:00,
2013-03-03 16:30:00,26.4,16.6,29.98,East,92,0.0,0.0,66,0.00,,,0.01,Wunderground v.1.15,2013-03-03 21:30:00,
2013-03-03 16:40:00,26.4,15.9,29.98,NNW,342,1.0,4.0,64,0.00,,,0.01,Wunderground v.1.15,2013-03-03 21:40:00,
2013-03-03 16:45:00,26.3,16.1,29.98,WNW,303,1.0,4.0,65,0.00,,,0.01,Wunderground v.1.15,2013-03-03 21:45:00,
2013-03-03 16:55:00,26.1,15.6,29.99,NNE,32,1.0,1.0,64,0.00,,,0.01,Wunderground v.1.15,2013-03-03 21:55:00,
2013-03-03 17:00:00,26.1,15.9,29.99,North,9,1.0,2.0,65,0.00,,,0.01,Wunderground v.1.15,2013-03-03 22:00:00,
2013-03-03 17:05:00,26.1,15.9,29.98,East,80,1.0,2.0,65,0.00,,,0.01,Wunderground v.1.15,2013-03-03 22:05:00,
2013-03-03 17:15:00,26.6,16.1,29.98,WNW,285,1.0,1.0,64,0.00,,,0.01,Wunderground v.1.15,2013-03-03 22:15:00,
2013-03-03 17:25:00,26.1,15.2,29.98,NE,43,1.0,2.0,63,0.00,,,0.01,Wunderground v.1.15,2013-03-03 22:25:00,
2013-03-03 17:30:00,26.0,15.1,29.98,South,173,1.0,1.0,63,0.00,,,0.01,Wunderground v.1.15,2013-03-03 22:30:00,
2013-03-03 17:40:00,25.8,14.9,29.99,NNE,28,0.0,0.0,63,0.00,,,0.01,Wunderground v.1.15,2013-03-03 22:40:00,
2013-03-03 17:45:00,25.7,15.2,29.99,NNE,26,0.0,0.0,64,0.00,,,0.01,Wunderground v.1.15,2013-03-03 22:45:00,
2013-03-03 17:55:00,25.6,14.7,29.99,West,261,0.0,0.0,63,0.00,,,0.01,Wunderground v.1.15,2013-03-03 22:55:00,
2013-03-03 18:00:00,25.4,14.9,29.99,NW,317,0.0,0.0,64,0.00,,,0.01,Wunderground v.1.15,2013-03-03 23:00:00,
2013-03-03 18:10:00,25.1,14.6,29.99,NNE,33,1.0,1.0,64,0.00,,,0.01,Wunderground v.1.15,2013-03-03 23:10:00,
2013-03-03 18:15:00,25.1,14.6,29.99,NNE,18,1.0,1.0,64,0.00,,,0.01,Wunderground v.1.15,2013-03-03 23:15:00,
2013-03-03 18:25:00,24.8,14.7,30.00,NNE,19,0.0,0.0,65,0.00,,,0.01,Wunderground v.1.15,2013-03-03 23:25:00,
2013-03-03 18:31:00,24.7,14.2,30.00,NNE,19,0.0,0.0,64,0.00,,,0.01,Wunderground v.1.15,2013-03-03 23:31:00,
2013-03-03 18:40:00,24.4,14.3,30.00,NNE,19,0.0,0.0,65,0.00,,,0.01,Wunderground v.1.15,2013-03-03 23:40:00,
2013-03-03 18:45:00,24.1,14.4,30.00,NNE,19,0.0,0.0,66,0.00,,,0.01,Wunderground v.1.15,2013-03-03 23:45:00,
2013-03-03 18:55:00,23.8,14.4,30.00,NNE,19,0.0,0.0,67,0.00,,,0.01,Wunderground v.1.15,2013-03-03 23:55:00,
2013-03-03 19:00:00,23.5,14.1,30.00,NNE,19,0.0,0.0,67,0.00,,,0.01,Wunderground v.1.15,2013-03-04 00:00:00,
2013-03-03 19:10:00,23.0,14.3,30.01,NNE,19,0.0,0.0,69,0.00,,,0.01,Wunderground v.1.15,2013-03-04 00:10:00,
2013-03-03 19:15:00,22.7,14.4,30.01,NNE,19,0.0,0.0,70,0.00,,,0.01,Wunderground v.1.15,2013-03-04 00:15:00,
2013-03-03 19:25:00,22.2,14.5,30.01,NNE,19,0.0,0.0,72,0.00,,,0.01,Wunderground v.1.15,2013-03-04 00:25:00,
2013-03-03 19:30:00,21.9,14.3,30.01,NNE,19,0.0,0.0,72,0.00,,,0.01,Wunderground v.1.15,2013-03-04 00:30:00,
2013-03-03 19:40:00,21.6,14.0,30.01,NNE,19,0.0,0.0,72,0.00,,,0.01,Wunderground v.1.15,2013-03-04 00:40:00,
2013-03-03 19:45:00,21.4,13.8,30.01,NNE,19,0.0,0.0,72,0.00,,,0.01,Wunderground v.1.15,2013-03-04 00:45:00,
2013-03-03 19:55:00,21.0,14.0,30.02,NNE,19,0.0,0.0,74,0.00,,,0.01,Wunderground v.1.15,2013-03-04 00:55:00,
2013-03-03 20:00:00,20.8,13.8,30.02,NNE,19,0.0,0.0,74,0.00,,,0.01,Wunderground v.1.15,2013-03-04 01:00:00,
2013-03-03 20:05:00,20.6,13.9,30.02,NNE,19,0.0,0.0,75,0.00,,,0.01,Wunderground v.1.15,2013-03-04 01:05:00,
2013-03-03 20:15:00,20.6,14.2,30.02,NNE,19,0.0,0.0,76,0.00,,,0.01,Wunderground v.1.15,2013-03-04 01:15:00,
2013-03-03 20:25:00,20.5,14.1,30.02,NNE,19,0.0,0.0,76,0.00,,,0.01,Wunderground v.1.15,2013-03-04 01:25:00,
2013-03-03 20:30:00,20.3,13.9,30.02,NNE,19,0.0,0.0,76,0.00,,,0.01,Wunderground v.1.15,2013-03-04 01:30:00,
2013-03-03 20:40:00,20.0,13.6,30.03,NNE,19,0.0,0.0,76,0.00,,,0.01,Wunderground v.1.15,2013-03-04 01:40:00,
2013-03-03 20:45:00,19.9,13.9,30.03,NNE,19,0.0,0.0,77,0.00,,,0.01,Wunderground v.1.15,2013-03-04 01:45:00,
2013-03-03 20:55:00,19.7,14.5,30.03,NNE,19,0.0,0.0,80,0.00,,,0.01,Wunderground v.1.15,2013-03-04 01:55:00,
2013-03-03 21:00:00,19.7,14.2,30.03,NNE,19,0.0,0.0,79,0.00,,,0.01,Wunderground v.1.15,2013-03-04 02:00:00,
2013-03-03 21:10:00,19.5,14.3,30.03,NNE,19,0.0,0.0,80,0.00,,,0.01,Wunderground v.1.15,2013-03-04 02:10:00,
2013-03-03 21:15:00,19.4,14.2,30.03,NNE,19,0.0,0.0,80,0.00,,,0.01,Wunderground v.1.15,2013-03-04 02:15:00,
2013-03-03 21:25:00,19.1,14.2,30.03,NNE,19,0.0,0.0,81,0.00,,,0.01,Wunderground v.1.15,2013-03-04 02:25:00,
2013-03-03 21:30:00,19.1,14.2,30.03,NNE,19,0.0,0.0,81,0.00,,,0.01,Wunderground v.1.15,2013-03-04 02:30:00,
2013-03-03 21:40:00,19.1,14.2,30.03,NNE,19,0.0,0.0,81,0.00,,,0.01,Wunderground v.1.15,2013-03-04 02:40:00,
2013-03-03 21:45:00,19.1,14.2,30.03,NNE,19,0.0,0.0,81,0.00,,,0.01,Wunderground v.1.15,2013-03-04 02:45:00,
2013-03-03 21:55:00,19.1,14.2,30.03,NNE,19,0.0,0.0,81,0.00,,,0.01,Wunderground v.1.15,2013-03-04 02:55:00,
2013-03-03 22:00:00,19.1,13.9,30.03,NNE,19,0.0,0.0,80,0.00,,,0.01,Wunderground v.1.15,2013-03-04 03:00:00,
2013-03-03 22:10:00,18.9,13.7,30.03,NNE,19,0.0,0.0,80,0.00,,,0.01,Wunderground v.1.15,2013-03-04 03:10:00,
2013-03-03 22:15:00,18.9,14.0,30.03,NNE,19,0.0,0.0,81,0.00,,,0.01,Wunderground v.1.15,2013-03-04 03:15:00,
2013-03-03 22:25:00,18.8,13.9,30.03,NNE,19,0.0,0.0,81,0.00,,,0.01,Wunderground v.1.15,2013-03-04 03:25:00,
2013-03-03 22:30:00,18.6,13.7,30.03,NNE,19,0.0,0.0,81,0.00,,,0.01,Wunderground v.1.15,2013-03-04 03:30:00,
2013-03-03 22:40:00,18.6,14.3,30.03,NNE,19,0.0,0.0,83,0.00,,,0.01,Wunderground v.1.15,2013-03-04 03:40:00,
2013-03-03 22:45:00,18.4,14.1,30.03,NNE,19,0.0,0.0,83,0.00,,,0.01,Wunderground v.1.15,2013-03-04 03:45:00,
2013-03-03 22:55:00,18.4,14.4,30.03,NNE,19,0.0,0.0,84,0.00,,,0.01,Wunderground v.1.15,2013-03-04 03:55:00,
2013-03-03 23:00:00,18.3,14.3,30.03,NNE,19,0.0,0.0,84,0.00,,,0.01,Wunderground v.1.15,2013-03-04 04:00:00,
2013-03-03 23:10:00,18.3,14.3,30.03,NNE,19,0.0,0.0,84,0.00,,,0.01,Wunderground v.1.15,2013-03-04 04:10:00,
2013-03-03 23:16:00,18.1,14.1,30.03,NNE,19,0.0,0.0,84,0.00,,,0.01,Wunderground v.1.15,2013-03-04 04:16:00,
2013-03-03 23:25:00,18.0,14.0,30.03,NNE,19,0.0,0.0,84,0.00,,,0.01,Wunderground v.1.15,2013-03-04 04:25:00,
2013-03-03 23:30:00,17.8,13.8,30.03,NNE,19,0.0,0.0,84,0.00,,,0.01,Wunderground v.1.15,2013-03-04 04:30:00,
2013-03-03 23:40:00,17.5,13.5,30.03,NNE,19,0.0,0.0,84,0.00,,,0.01,Wunderground v.1.15,2013-03-04 04:40:00,
2013-03-03 23:45:00,17.3,13.3,30.03,NNE,19,0.0,0.0,84,0.00,,,0.01,Wunderground v.1.15,2013-03-04 04:45:00,
2013-03-03 23:55:00,17.0,13.0,30.03,NNE,19,0.0,0.0,84,0.00,,,0.01,Wunderground v.1.15,2013-03-04 04:55:00,